Location: Newark
(51.0500°N, 12.4500°E)
Time: 06:25:02
(UTC+00:00)

Tiros 1 - Pass Details

Date: 26 February 2020
Orbit: 630 x 664 km, 48.4° (Epoch: 07 April)

Event Time Altitude Azimuth Distance (km) Brightness Sun altitude
Rises 01:00:48 0° 239° (WSW) 2,931 - -43.4°
Reaches altitude 10° 01:03:12 10° 233° (SW) 2,019 - -43.2°
Maximum altitude 01:07:37 45° 161° (SSE) 860 - -42.8°
Drops below altitude 10° 01:12:02 10° 89° (E) 2,012 - -42.3°
Exits shadow 01:14:03 - 84° (E) 2,775 10.9 -42.2°
Sets 01:14:25 0° 83° (E) 2,919 11.0 -42.1°
